Temp
64 64 65 65 65 64 65 65 65 64 64 64 65 64 64 64 63 58 54 63 66 70 68 66 66 64 63 61 61 58 47 42 47 50 53 59 58 62 61 61 59 59 59 61 65
63 64 64 64 65 64 64 64 64 64 64 64 64 64 64 63 57 53 64 69 70 70 64 60 57 61 56 56 58 52 44 48 54 52 52 58 56 56 57 57 56 57 60 62 62
62 62 63 63 64 64 64 64 63 64 64 63 64 64 63 61 52 53 68 68 69 68 64 63 61 59 52 54 54 51 46 52 55 57 58 58 59 58 55 53 58 58 58 59 59
61 62 61 62 63 63 64 63 63 63 64 63 63 63 62 57 42 61 68 68 68 65 63 59 56 52 50 50 55 48 55 56 57 58 58 56 58 58 56 59 61 61 61 59 59
60 60 60 61 61 62 62 63 63 63 63 63 63 63 57 47 48 65 66 65 65 62 58 57 54 52 48 49 51 49 52 56 58 57 57 60 56 56 57 63 61 61 60 59 60
59 59 59 60 60 61 62 62 62 62 63 63 63 62 54 42 61 63 64 62 61 59 57 57 55 56 51 50 50 51 53 53 55 57 56 55 55 53 56 60 59 60 59 59 59
59 59 59 59 60 60 61 61 62 61 62 63 63 60 52 50 61 60 63 60 60 61 55 58 58 54 53 48 54 51 46 49 51 55 54 55 50 53 57 57 59 58 58 58 59
58 57 57 58 59 60 60 60 61 61 61 62 63 58 47 62 65 60 59 59 61 61 59 60 60 54 51 53 51 46 43 38 48 53 55 55 44 52 57 55 56 58 55 57 59
56 57 57 58 58 58 59 60 59 60 61 62 55 52 47 62 54 60 60 56 58 59 59 62 56 49 48 43 39 38 32 37 43 51 52 51 43 52 55 54 54 54 56 56 57
56 56 57 57 58 58 58 59 59 59 57 58 56 48 50 50 55 57 57 59 56 55 53 51 48 43 43 42 33 34 35 38 37 46 48 46 46 51 53 53 52 53 53 54 56
56 56 56 57 57 58 56 52 46 44 48 47 46 47 49 58 58 55 57 54 54 51 45 47 41 38 42 46 43 41 38 37 39 48 45 43 46 50 53 49 49 50 51 54 56
55 56 55 56 57 58 54 46 46 47 41 48 51 50 55 57 48 52 58 47 47 42 45 43 38 45 47 46 43 40 38 35 41 46 44 42 44 48 50 54 52 51 51 53 56
55 55 55 56 56 53 48 47 52 51 40 44 48 48 50 52 48 48 54 49 45 43 43 40 44 49 46 43 41 41 38 36 37 42 42 41 42 47 47 49 51 53 54 54 55
55 53 55 55 49 49 45 51 53 50 32 35 40 48 51 51 44 54 56 52 45 41 44 42 49 45 43 41 43 36 45 41 40 37 31 41 32 42 43 46 49 51 51 53 55
54 54 54 55 47 43 47 52 53 46 18 36 39 53 50 44 46 47 55 51 44 41 42 40 40 41 40 42 45 40 47 43 41 37 34 34 30 34 40 42 45 50 50 52 54
53 54 54 50 47 47 52 52 47 26 18 28 40 38 39 43 43 47 47 52 50 45 46 45 45 47 44 47 47 46 40 39 38 37 30 37 33 39 40 42 45 50 51 52 55
53 53 51 50 43 48 50 43 26 20 32 30 33 38 38 38 40 41 40 38 37 33 34 40 39 41 47 40 43 42 36 26 28 28 27 37 33 40 42 46 48 49 51 52 53
53 53 51 50 49 49 44 32 19 25 26 35 37 38 34 40 39 39 38 34 40 40 34 33 30 39 43 43 40 40 40 27 17 21 28 33 31 39 46 51 53 52 53 51 51
52 47 45 47 48 47 35 23 23 26 32 32 35 32 33 38 37 38 35 35 38 40 35 34 35 42 41 44 47 39 35 42 29 25 20 28 33 44 47 47 47 49 47 48 48
42 41 41 48 48 42 31 26 26 34 38 38 28 32 29 33 33 34 34 40 39 42 41 37 32 38 43 44 45 42 44 33 33 20 19 26 28 35 38 43 45 45 46 47 48
40 34 43 48 45 34 25 25 30 35 38 33 30 30 31 31 36 34 37 40 43 41 44 41 36 31 40 36 39 38 36 34 35 33 24 20 30 38 43 45 45 44 45 45 45
38 28 44 45 31 31 26 29 36 31 36 33 32 32 32 33 33 34 34 40 46 43 36 42 34 30 34 44 47 45 41 40 31 24 29 28 32 43 45 45 46 44 44 43 44
32 31 43 42 25 26 27 23 31 30 31 30 30 33 35 32 31 36 37 45 44 44 39 42 33 26 28 34 39 39 41 42 41 34 29 27 30 43 44 43 44 44 44 45 46
32 25 32 35 34 26 19 20 24 32 32 31 33 37 33 30 33 32 36 39 42 44 47 47 38 32 30 33 35 33 38 40 39 32 33 32 37 37 38 40 42 43 44 45 47
32 22 27 25 28 27 26 24 26 24 32 35 29 33 31 28 30 30 38 37 40 44 44 43 32 36 34 35 37 38 37 38 36 39 33 38 36 42 42 41 43 44 43 45 45
29 25 32 21 30 29 27 26 25 28 30 29 28 33 34 30 31 33 34 37 37 40 40 42 30 33 31 34 33 34 38 40 40 40 40 41 39 47 48 44 42 42 42 41 41
34 32 32 30 28 27 27 28 29 29 32 34 34 33 31 34 35 38 42 41 38 35 36 36 34 31 28 35 28 27 35 38 39 43 42 35 43 43 41 42 43 41 40 39 39
MSLP
1019.05 1019.11 1019.21 1019.25 1019.26 1019.44 1019.56 1019.65 1019.83 1020.03 1020.15 1020.33 1020.44 1020.52 1020.62 1020.59 1020.50 1020.42 1019.85 1018.73 1018.52 1018.23 1018.22 1018.19 1017.97 1018.17 1018.01 1018.23 1018.28 1018.57 1019.50 1019.54 1018.62 1017.91 1017.36 1016.84 1016.67 1016.38 1016.31 1016.47 1016.91 1017.25 1017.47 1017.47 1017.60
1018.79 1018.81 1018.91 1019.01 1019.00 1019.05 1019.19 1019.38 1019.59 1019.78 1019.94 1020.14 1020.29 1020.40 1020.48 1020.55 1020.53 1020.05 1018.60 1018.25 1018.13 1018.27 1018.33 1018.45 1018.48 1018.51 1018.63 1018.70 1018.68 1019.05 1019.87 1019.16 1018.35 1017.77 1017.55 1017.16 1016.98 1016.99 1016.69 1016.73 1017.11 1017.31 1017.55 1017.64 1017.96
1018.55 1018.74 1018.72 1018.71 1018.81 1018.81 1018.93 1019.08 1019.28 1019.46 1019.61 1019.96 1020.08 1020.23 1020.44 1020.59 1020.50 1018.59 1017.40 1017.38 1017.83 1018.16 1018.43 1018.59 1018.72 1018.91 1019.06 1019.00 1019.02 1019.19 1019.41 1018.91 1018.34 1017.70 1017.40 1017.35 1017.12 1016.95 1016.88 1017.01 1017.08 1017.45 1017.72 1018.14 1018.50
1018.17 1018.26 1018.45 1018.54 1018.57 1018.62 1018.67 1018.81 1019.03 1019.17 1019.40 1019.67 1019.99 1020.22 1020.58 1020.80 1019.96 1017.53 1017.20 1017.20 1017.83 1018.19 1018.64 1018.82 1019.10 1019.40 1019.60 1019.49 1019.15 1019.36 1018.96 1018.62 1018.22 1017.94 1017.56 1017.47 1017.43 1017.31 1017.09 1016.79 1016.83 1017.17 1017.54 1018.20 1018.59
1017.81 1018.09 1018.32 1018.36 1018.54 1018.60 1018.53 1018.55 1018.73 1018.86 1019.09 1019.35 1019.53 1020.04 1020.83 1020.89 1019.29 1017.42 1017.29 1017.14 1017.65 1018.34 1018.71 1019.20 1019.36 1019.49 1019.78 1019.64 1019.49 1019.27 1018.97 1018.52 1018.29 1018.27 1018.03 1017.60 1017.64 1017.59 1017.29 1016.73 1016.91 1017.27 1017.80 1018.25 1018.52
1017.51 1017.81 1017.99 1018.14 1018.27 1018.35 1018.43 1018.50 1018.50 1018.61 1018.73 1018.93 1019.20 1019.69 1020.37 1019.77 1018.53 1017.74 1017.70 1017.66 1017.51 1018.26 1018.87 1019.12 1019.31 1019.22 1019.67 1019.73 1019.61 1019.14 1018.93 1018.83 1018.48 1018.21 1018.15 1018.06 1017.82 1017.62 1017.10 1016.91 1017.38 1017.62 1018.00 1018.43 1018.64
1016.97 1017.27 1017.53 1017.73 1017.91 1018.04 1018.20 1018.27 1018.26 1018.33 1018.45 1018.58 1018.79 1019.34 1019.18 1017.74 1018.02 1018.05 1017.69 1017.88 1017.87 1018.02 1018.60 1018.93 1019.21 1019.27 1019.41 1019.69 1019.33 1019.26 1019.44 1019.24 1018.85 1018.57 1018.31 1018.16 1018.09 1016.87 1017.21 1017.23 1017.35 1017.84 1018.00 1018.17 1018.27
1016.37 1016.81 1017.01 1017.35 1017.55 1017.70 1017.90 1017.92 1018.04 1018.18 1018.29 1018.32 1018.44 1018.66 1017.45 1017.12 1017.63 1018.29 1018.35 1018.08 1017.95 1018.31 1018.62 1018.89 1019.37 1019.62 1019.61 1019.54 1019.63 1019.90 1020.01 1019.90 1018.89 1018.55 1018.41 1018.51 1017.64 1017.18 1017.03 1017.43 1017.72 1017.75 1017.84 1017.83 1017.78
1015.86 1016.17 1016.40 1016.73 1017.03 1017.35 1017.62 1017.79 1017.88 1017.97 1018.11 1018.12 1018.53 1018.04 1016.82 1016.43 1017.20 1017.60 1018.32 1018.58 1018.25 1018.59 1018.84 1018.98 1019.61 1020.07 1020.02 1020.29 1020.72 1020.68 1020.67 1020.52 1019.68 1018.74 1018.68 1018.53 1018.01 1017.17 1016.74 1017.19 1017.70 1017.73 1017.61 1017.57 1017.56
1015.32 1015.65 1015.83 1016.20 1016.51 1016.83 1017.19 1017.50 1017.49 1017.70 1017.87 1018.14 1018.09 1018.28 1016.32 1015.53 1016.50 1017.06 1017.60 1018.33 1018.36 1018.77 1019.35 1019.46 1019.88 1020.12 1020.00 1020.12 1019.67 1020.81 1021.10 1020.53 1019.80 1019.08 1018.75 1018.49 1017.70 1017.10 1017.08 1017.37 1017.63 1017.61 1017.51 1017.43 1017.13
1014.69 1015.01 1015.34 1015.64 1016.04 1016.29 1017.01 1017.51 1017.89 1018.01 1017.50 1016.15 1016.34 1016.04 1015.45 1015.39 1015.63 1016.49 1017.02 1018.12 1018.22 1018.61 1019.14 1019.45 1019.56 1018.12 1017.67 1019.07 1019.85 1020.22 1020.54 1020.49 1019.89 1019.17 1018.85 1018.41 1017.91 1017.44 1016.98 1017.36 1017.32 1017.24 1017.27 1017.09 1016.81
1013.95 1014.30 1014.63 1014.99 1015.37 1015.76 1016.36 1016.45 1016.34 1016.74 1016.41 1016.17 1016.00 1015.73 1015.36 1015.27 1015.87 1016.15 1016.53 1017.66 1018.00 1017.88 1018.91 1019.54 1017.60 1017.36 1018.81 1019.45 1020.03 1020.41 1020.36 1020.35 1020.10 1019.37 1019.31 1018.84 1017.75 1017.30 1017.00 1016.22 1016.49 1016.70 1016.72 1016.55 1016.28
1013.10 1013.56 1013.89 1014.36 1014.85 1015.44 1015.72 1015.95 1016.52 1016.55 1016.39 1015.17 1015.03 1015.21 1015.30 1015.59 1015.15 1015.29 1015.91 1016.45 1017.25 1017.91 1017.64 1017.38 1016.03 1017.72 1018.39 1019.00 1019.59 1019.64 1019.72 1020.18 1020.12 1019.68 1019.51 1019.53 1017.91 1016.94 1016.14 1015.81 1015.83 1015.76 1015.60 1015.81 1015.69
1012.18 1013.15 1013.32 1013.87 1014.94 1014.86 1015.15 1015.44 1016.40 1017.12 1016.38 1014.53 1014.05 1013.12 1014.58 1014.62 1015.09 1014.65 1015.26 1015.45 1016.49 1016.30 1017.45 1017.84 1016.89 1017.13 1017.56 1018.23 1018.78 1019.04 1019.66 1020.13 1020.44 1020.55 1020.37 1019.90 1017.78 1016.39 1015.78 1015.60 1015.33 1015.09 1015.18 1015.31 1015.06
1011.51 1012.09 1012.49 1013.14 1013.51 1014.00 1014.46 1015.31 1016.33 1017.39 1014.31 1012.79 1012.34 1011.68 1013.04 1014.21 1013.86 1014.41 1014.94 1015.26 1014.90 1015.45 1017.00 1015.45 1016.12 1017.03 1017.59 1016.80 1018.48 1018.35 1018.98 1019.97 1020.71 1020.91 1021.06 1020.38 1019.98 1015.19 1015.44 1015.19 1015.22 1015.00 1015.05 1014.82 1014.61
1010.54 1010.97 1011.51 1012.36 1013.14 1013.13 1013.98 1014.65 1015.97 1015.45 1012.07 1011.81 1011.26 1011.30 1012.55 1013.32 1013.73 1013.65 1014.31 1014.75 1014.89 1015.48 1015.69 1015.21 1015.64 1016.21 1015.88 1016.99 1017.79 1018.41 1019.32 1020.24 1020.92 1021.41 1021.26 1018.13 1019.69 1014.55 1015.15 1014.74 1014.80 1014.63 1014.46 1014.26 1013.99
1009.52 1010.04 1010.77 1011.56 1011.67 1013.12 1013.51 1014.61 1014.13 1012.08 1012.38 1011.64 1010.65 1010.86 1010.88 1011.64 1013.04 1013.02 1013.20 1013.67 1013.76 1014.61 1014.40 1015.39 1015.80 1015.55 1015.63 1016.68 1017.42 1017.99 1019.08 1020.60 1021.06 1020.53 1019.08 1018.78 1019.40 1015.06 1013.77 1013.94 1014.26 1014.39 1014.00 1013.62 1013.47
1008.63 1009.34 1009.75 1010.58 1011.68 1012.41 1013.41 1013.65 1011.44 1011.08 1011.51 1011.16 1010.40 1010.66 1010.33 1010.61 1011.51 1012.66 1012.27 1012.70 1013.94 1013.96 1014.10 1014.19 1015.05 1014.69 1014.48 1014.78 1015.87 1017.13 1018.12 1018.56 1019.41 1019.91 1019.27 1018.92 1017.52 1013.87 1013.51 1013.37 1013.53 1013.40 1013.34 1013.30 1013.35
1008.08 1008.47 1009.09 1010.05 1010.79 1011.91 1012.56 1011.26 1010.71 1010.90 1010.64 1010.76 1010.76 1010.39 1010.23 1010.41 1010.28 1011.64 1011.98 1011.81 1012.14 1012.94 1013.55 1013.46 1013.45 1013.23 1013.95 1014.56 1015.03 1016.16 1016.83 1017.10 1019.09 1020.39 1019.88 1018.24 1016.43 1014.44 1013.17 1013.14 1013.02 1013.08 1013.24 1013.07 1013.16
1006.98 1007.54 1008.13 1009.22 1010.29 1011.35 1011.24 1010.44 1010.94 1010.58 1010.41 1010.50 1009.81 1010.00 1009.43 1009.64 1010.18 1010.41 1010.67 1011.40 1011.56 1012.11 1012.76 1012.89 1013.41 1013.04 1013.80 1014.21 1014.29 1014.68 1015.96 1017.47 1018.10 1018.81 1019.13 1017.57 1016.42 1014.27 1013.21 1012.89 1012.90 1013.15 1013.23 1013.44 1013.68
1006.29 1006.98 1007.44 1008.80 1010.12 1010.50 1009.69 1010.38 1011.01 1010.72 1010.53 1010.79 1010.60 1010.03 1009.55 1009.28 1009.35 1009.21 1009.10 1010.33 1011.11 1011.75 1012.76 1012.70 1013.19 1013.45 1013.53 1012.72 1013.01 1014.48 1014.99 1015.88 1016.43 1017.23 1017.54 1017.22 1015.16 1013.51 1013.06 1012.88 1013.16 1013.64 1013.84 1014.12 1014.29
1006.20 1007.18 1007.10 1008.17 1009.06 1009.18 1009.45 1010.17 1010.37 1010.73 1010.80 1011.14 1011.12 1010.77 1009.84 1009.65 1008.87 1008.94 1008.78 1009.19 1009.61 1010.63 1011.30 1011.89 1013.09 1013.07 1012.31 1012.27 1012.55 1012.61 1012.79 1013.63 1014.96 1016.12 1016.33 1015.77 1013.79 1012.55 1012.60 1012.65 1012.88 1013.74 1014.15 1014.38 1014.55
1006.24 1007.13 1007.35 1007.45 1007.80 1008.70 1009.76 1010.30 1010.29 1010.53 1010.48 1010.98 1010.89 1010.41 1010.24 1009.46 1009.20 1008.18 1008.11 1008.06 1008.84 1009.52 1009.74 1011.38 1011.83 1012.25 1012.82 1013.32 1012.43 1012.19 1012.51 1013.08 1013.74 1014.31 1014.75 1015.04 1013.39 1012.57 1012.62 1013.10 1013.24 1013.57 1014.16 1014.45 1014.77
1006.17 1006.98 1007.25 1007.20 1007.41 1008.49 1009.35 1010.07 1010.48 1010.25 1010.30 1010.37 1009.98 1010.06 1010.06 1010.15 1009.36 1008.28 1008.11 1008.01 1008.42 1008.74 1009.26 1010.26 1010.66 1010.79 1010.76 1011.19 1010.93 1012.12 1011.87 1012.19 1012.72 1013.34 1013.06 1013.13 1012.76 1012.88 1013.26 1013.43 1013.60 1013.91 1014.33 1014.59 1014.98
1004.84 1005.82 1005.65 1006.31 1007.40 1008.05 1008.73 1009.36 1009.50 1009.80 1009.92 1009.87 1009.86 1009.46 1009.53 1009.91 1008.73 1008.10 1008.07 1008.19 1008.32 1008.65 1009.38 1009.73 1009.84 1010.67 1010.96 1011.35 1010.32 1010.12 1010.66 1011.09 1011.58 1011.38 1011.78 1011.36 1011.90 1011.87 1012.55 1013.25 1013.52 1013.83 1014.51 1014.61 1015.16
1004.21 1005.26 1005.92 1006.56 1006.89 1007.80 1008.25 1008.43 1008.78 1009.07 1009.33 1009.30 1009.01 1008.54 1008.61 1008.85 1008.96 1006.72 1007.29 1007.70 1007.90 1009.00 1009.09 1009.48 1009.11 1010.13 1010.43 1010.73 1010.32 1010.07 1010.04 1010.35 1010.46 1010.35 1010.60 1010.74 1011.22 1010.51 1011.83 1012.99 1013.69 1013.99 1014.60 1015.41 1016.05
1003.89 1004.53 1004.80 1006.06 1006.79 1007.70 1007.36 1007.22 1007.51 1008.31 1008.38 1008.19 1007.67 1007.85 1008.09 1006.98 1007.51 1008.39 1006.76 1007.09 1007.73 1008.73 1008.80 1009.36 1009.57 1010.23 1009.59 1009.95 1010.95 1010.57 1009.55 1009.08 1009.32 1008.97 1009.64 1010.29 1009.29 1010.62 1011.53 1012.58 1013.49 1014.49 1015.44 1016.41 1017.17
Wind_Speed
15 14 13 12 9 13 14 13 12 12 11 9 7 6 5 5 5 2 7 8 5 7 4 6 4 6 3 4 3 3 4 3 3 2 3 5 5 4 1 4 2 1 3 2 7
15 13 14 14 12 10 11 13 14 13 12 10 8 6 4 2 2 8 4 11 10 7 3 1 2 5 3 2 4 4 3 7 4 1 1 5 2 4 2 1 1 1 1 3 8
13 15 13 13 14 12 10 10 12 13 13 11 9 7 3 1 3 10 13 23 14 8 1 2 2 1 1 1 3 3 6 4 3 2 2 3 5 1 1 2 3 4 3 4 4
13 13 13 14 13 13 13 11 11 12 14 13 11 8 4 2 8 1 4 13 16 6 4 3 2 3 4 5 4 3 6 4 3 1 3 3 4 7 3 5 2 4 5 6 8
12 11 11 11 12 13 13 12 11 11 13 14 13 11 5 3 9 7 9 8 10 7 8 5 5 5 6 4 1 3 3 4 4 4 5 5 5 6 5 9 2 3 7 9 7
14 11 11 11 11 12 12 13 13 11 12 15 14 14 4 13 8 8 5 5 7 11 7 8 6 4 4 4 6 2 3 3 3 5 3 4 5 2 5 6 3 4 7 7 8
14 13 13 12 13 13 13 12 12 12 11 14 16 11 14 14 3 5 1 1 3 12 7 5 2 2 4 2 6 2 3 4 5 5 5 3 7 17 6 3 8 5 7 8 11
17 15 13 14 13 14 14 13 11 11 11 12 16 11 12 14 17 6 3 5 1 2 3 7 4 1 2 2 5 4 1 1 4 8 6 9 13 6 7 5 9 11 8 9 9
18 16 16 17 15 14 14 12 11 9 11 9 4 8 9 11 9 13 7 2 2 3 4 4 6 3 0 4 2 2 3 6 8 7 5 9 7 6 4 5 9 8 10 7 6
20 19 18 17 16 17 15 14 5 8 5 3 4 6 6 10 7 7 8 9 4 7 3 4 4 4 7 10 11 8 6 6 7 6 8 9 11 10 8 6 9 9 9 8 8
21 21 21 19 17 17 12 3 3 4 8 12 3 5 4 8 6 10 7 8 3 6 11 6 7 23 26 17 5 7 5 7 3 5 3 8 14 16 13 6 10 9 8 10 11
23 22 22 22 20 20 12 9 9 0 7 17 13 11 3 4 8 8 13 10 10 15 9 7 23 13 9 10 7 5 8 5 4 4 2 7 17 13 10 15 9 8 9 11 8
22 23 22 22 21 14 13 17 3 4 6 7 21 12 4 6 7 15 18 12 14 16 21 20 9 17 13 13 16 18 14 6 2 0 3 6 16 15 8 8 6 8 9 7 11
22 25 24 21 14 11 14 11 5 5 8 10 15 16 15 5 9 4 19 19 9 25 18 15 18 14 16 17 17 21 15 6 6 4 6 6 15 8 4 9 8 9 7 8 10
27 26 24 26 5 15 7 10 10 5 14 11 12 9 12 10 11 17 6 11 20 10 12 15 9 12 16 18 15 9 9 14 6 6 5 7 4 4 3 7 6 9 8 10 10
25 26 25 17 8 7 10 12 10 10 9 8 13 18 18 25 5 11 13 9 3 12 21 23 5 15 11 11 17 7 6 4 4 5 10 21 9 20 9 6 5 7 10 9 12
26 26 22 12 12 7 12 8 11 16 5 6 11 18 29 25 29 10 20 20 16 10 15 20 7 2 7 8 6 6 8 4 7 11 16 10 8 23 3 3 5 10 12 11 9
26 26 21 13 10 13 9 10 17 15 14 3 9 19 31 25 20 28 15 20 24 17 8 16 15 16 6 9 9 20 14 6 10 6 8 5 12 16 1 9 13 9 11 7 9
20 13 12 11 13 11 11 16 9 4 6 8 7 15 24 25 11 25 22 17 23 17 15 15 17 8 5 6 18 12 20 10 5 2 3 6 8 9 9 8 8 8 7 8 5
11 11 10 13 13 11 12 21 5 3 3 14 17 17 17 27 17 28 28 21 16 24 8 3 7 5 18 8 12 13 10 10 9 9 10 5 5 11 2 7 3 4 5 7 7
6 5 7 15 11 10 14 10 8 4 4 6 8 12 11 16 28 18 22 14 22 20 20 2 2 3 15 17 19 8 10 6 3 7 7 3 9 8 10 8 6 6 7 6 7
3 5 8 15 13 6 10 8 10 6 4 3 4 7 10 13 21 24 25 27 25 22 27 19 3 5 17 17 22 23 23 23 9 11 7 2 11 2 7 7 10 8 7 5 5
6 3 7 11 13 8 5 2 4 4 6 8 8 7 8 4 13 24 18 21 18 27 22 18 9 6 3 2 5 18 19 17 15 3 11 8 9 3 8 6 5 9 7 6 5
4 6 3 7 5 7 7 7 7 6 4 5 5 14 10 18 14 14 17 4 13 26 25 22 20 12 16 11 8 16 21 20 21 13 16 14 17 4 5 8 5 5 6 8 6
3 6 5 6 14 9 9 10 11 5 6 12 4 14 10 10 20 14 15 10 10 19 22 20 21 23 15 7 10 19 25 25 22 25 19 23 18 14 14 11 9 8 6 6 6
7 5 2 3 9 14 13 9 14 12 9 8 12 18 15 17 13 18 14 10 12 14 23 20 10 17 19 12 7 11 19 24 26 26 23 19 14 12 10 7 7 9 8 7 6
3 2 5 8 12 13 14 16 18 7 5 12 20 5 13 21 9 15 11 6 8 6 20 17 13 9 22 21 2 10 22 23 23 30 26 19 29 7 9 8 10 8 8 8 7
Wind_Direction
263 261 265 260 256 252 246 233 228 231 230 237 241 244 271 297 320 296 247 226 207 266 322 305 13 347 27 333 5 113 61 177 229 146 296 346 12 351 306 122 80 359 156 301 147
261 262 260 264 259 253 260 247 236 223 223 229 237 246 266 329 298 254 227 248 248 257 331 346 328 6 4 329 332 96 127 216 222 168 36 328 24 305 359 79 70 314 338 30 125
268 267 258 258 261 264 252 253 246 237 223 218 225 231 237 171 333 250 206 223 225 218 189 77 49 61 186 82 240 186 177 217 257 269 61 331 318 337 128 252 215 222 207 150 153
263 268 266 263 264 265 268 263 250 240 229 213 208 198 186 137 234 268 314 238 215 172 149 141 120 153 191 203 234 193 215 200 210 199 353 315 326 314 203 230 188 272 183 169 179
254 255 261 261 264 263 268 269 263 251 242 224 200 176 128 226 247 273 347 324 183 160 180 164 163 155 182 206 222 218 238 204 259 281 254 283 257 236 261 263 310 79 151 190 200
244 250 250 247 257 261 262 266 265 261 249 235 206 174 185 237 242 307 301 11 160 166 172 159 203 180 185 211 170 231 200 281 306 305 237 235 263 203 255 263 212 145 193 201 215
253 243 238 247 245 252 257 261 267 258 262 245 221 189 225 226 211 34 108 295 190 183 165 186 140 183 163 247 216 265 317 310 218 216 249 174 279 241 186 287 288 230 226 220 224
240 243 242 239 244 245 250 253 261 264 259 251 233 203 238 204 236 279 334 330 180 190 140 148 99 351 198 268 14 152 123 235 267 183 247 133 260 263 243 204 253 268 239 230 240
247 243 235 232 230 234 240 242 253 263 257 262 249 225 234 153 195 223 196 231 141 132 144 125 107 193 176 117 17 333 178 220 291 200 173 193 252 251 239 230 254 256 269 256 248
248 245 242 236 230 228 227 228 233 265 258 284 254 253 208 200 147 148 164 176 175 130 114 144 156 190 186 184 204 186 186 226 209 222 209 229 248 263 266 265 248 251 263 279 271
248 242 235 234 229 225 228 208 189 240 210 221 178 257 148 179 114 178 158 141 191 151 189 190 180 209 204 202 199 160 193 196 221 245 192 236 257 258 272 252 254 247 247 250 259
245 242 234 227 222 215 210 222 203 31 233 221 251 231 263 181 173 181 150 155 184 195 141 180 223 205 147 192 209 197 211 214 270 265 171 294 273 264 258 261 231 222 238 236 243
246 241 234 227 222 217 206 215 312 25 259 209 212 232 180 185 191 185 175 165 186 193 198 203 215 184 180 189 202 222 214 177 170 326 277 23 288 267 243 258 231 227 224 231 231
247 252 232 222 217 208 216 192 200 78 244 221 196 217 205 186 220 169 203 173 177 205 193 223 231 188 186 204 192 222 221 143 172 118 233 145 270 215 226 240 240 229 213 230 240
246 234 227 210 178 191 187 170 173 147 231 192 197 173 184 202 131 197 214 214 195 175 165 212 155 178 202 208 180 222 157 200 182 220 34 242 269 273 221 240 235 249 225 234 247
237 235 220 215 201 206 178 165 159 222 236 189 165 173 168 199 214 157 176 214 154 199 202 216 173 182 197 175 187 130 81 85 146 170 232 235 191 271 222 201 215 248 253 246 243
235 224 213 199 209 161 163 172 213 221 127 185 183 178 186 189 205 201 185 189 186 195 187 211 199 223 144 152 155 168 124 161 209 208 231 183 174 243 265 331 214 257 249 245 257
234 224 213 197 184 165 168 208 225 207 207 196 185 188 193 189 206 199 202 183 214 199 177 186 202 201 182 199 175 195 191 181 204 196 235 148 223 235 153 227 242 253 264 261 255
232 217 196 188 166 170 190 214 221 170 183 186 189 201 197 204 185 199 212 200 188 190 198 198 214 189 186 169 167 187 208 197 98 123 73 211 284 300 257 246 248 266 259 272 297
215 196 188 170 167 180 215 219 197 192 162 216 215 197 199 197 205 192 196 195 195 200 219 223 206 191 182 144 213 177 146 189 203 205 226 245 250 232 246 246 254 268 129 66 67
156 158 175 160 163 200 215 220 198 249 142 189 234 240 228 193 206 202 202 198 196 191 206 151 244 209 156 205 190 164 193 207 181 192 200 229 248 202 222 216 176 167 95 93 91
138 177 171 150 194 192 212 153 176 188 150 168 250 289 215 218 204 207 209 206 191 177 203 201 184 196 209 203 204 202 205 198 196 222 223 202 245 220 231 198 154 137 123 116 91
154 107 185 166 198 179 138 175 158 140 183 175 218 205 327 254 226 207 203 206 181 194 195 186 198 179 161 29 171 213 212 212 218 61 190 207 245 188 133 134 146 147 153 140 111
133 160 177 196 209 154 132 188 189 199 211 180 233 216 243 270 249 211 212 192 188 203 198 188 216 228 224 226 145 195 211 208 208 219 220 220 245 142 154 150 166 164 174 147 149
148 212 199 171 193 175 178 166 190 170 199 203 210 225 209 250 215 216 222 209 185 202 201 204 216 213 227 253 189 194 206 212 209 218 214 228 222 221 190 195 195 197 178 138 139
144 139 116 127 170 175 181 203 193 206 173 199 225 201 202 211 269 200 170 202 200 193 202 202 243 209 232 235 210 216 212 216 216 222 226 239 237 223 200 197 188 178 166 141 115
120 57 114 148 156 174 202 204 210 159 253 240 216 212 196 224 181 287 197 170 135 173 200 200 210 193 226 220 193 237 216 214 217 223 213 217 229 123 195 195 173 155 139 135 113